Weather History for Sibiu, Romania

Change the Weather History Date:

Monday, May 7, 2012

  Actual Average (LRTM) Record (LRTM)
Temperature  
Mean Temperature 60 °F -  
Max Temperature 74 °F 70 °F 86 °F (2003)
Min Temperature 46 °F 48 °F 30 °F (2011)
Degree Days  
Heating Degree Days 5    
Growing Degree Days 10 (Base 50)    
Moisture  
Dew Point 51 °F    
Average Humidity 74    
Maximum Humidity 94    
Minimum Humidity 36    
Precipitation  
Precipitation 0.28 in 0.11 in - ()
Sea Level Pressure  
Sea Level Pressure 29.97 in    
Wind  
Wind Speed 5 mph ()    
Max Wind Speed 16 mph    
Max Gust Speed -    
Visibility 7.9 miles    
Events Rain , Thunderstorm    
Averages and records for this station are not official NWS values.
T = Trace of Precipitation, MM = Missing Value Source: Averaged Metar Reports

Daily Weather History Graph

Daily Weather History Graph

Search for Another Location

Airport:

Trip Planner

Search our weather history database for the weather conditions in past years. The results will help you decide how hot, cold, wet, or windy it might be!

Date:

Astronomy

May. 07, 2012 Rise Set
Actual Time 6:02 AM EEST 8:39 PM EEST
Civil Twilight 5:28 AM EEST 9:12 PM EEST
Nautical Twilight 4:45 AM EEST 9:55 PM EEST
Astronomical Twilight 3:56 AM EEST 10:45 PM EEST
Moon 10:35 PM EEST (5/7) 6:45 AM EEST (5/7)
Length of Visible Light 15h 44m
Length of Day
14h 36m
Full, 98% of the Moon is Illuminated
May 7
Full
May 13
Last Quarter
May 21
New
May 28
First Quarter
Jun 4
Full

Hourly Weather History & Observations

Time (EEST) Temp. Windchill Dew Point Humidity Pressure Visibility Wind Dir Wind Speed Gust Speed Precip Events Conditions
12:00 AM 57 °F - 48 °F 63% 29.97 in 12 mi SW 11.2 mph - -   Scattered Clouds
12:00 AM 57.2 °F - 46.4 °F 67% 29.98 in - WSW 11.5 mph - N/A   Clear
1:00 AM 57 °F - 46 °F 58% 29.98 in 12 mi SW 11.2 mph - -   Scattered Clouds
1:00 AM 55.4 °F - 50.0 °F 82% 29.98 in 6.2 mi ENE 4.6 mph - N/A   Unknown
2:00 AM 56 °F - 45 °F 58% 29.99 in 12 mi Calm Calm - -   Scattered Clouds
2:00 AM 53.6 °F - 48.2 °F 82% 29.98 in - Calm Calm - N/A   Clear
3:00 AM 51 °F - 45 °F 72% 30.00 in 12 mi SW 4.5 mph - -   Clear
3:00 AM 51.8 °F - 48.2 °F 88% 29.98 in 6.2 mi East 2.3 mph - N/A   Unknown
4:00 AM 52 °F - 48 °F 81% 29.99 in - ENE 2.2 mph - -  
4:00 AM 50.0 °F - 46.4 °F 87% 29.98 in - Calm Calm - N/A   Clear
5:00 AM 47 °F - 44 °F 86% 30.01 in - WSW 4.5 mph - -  
5:00 AM 48.2 °F - 44.6 °F 87% 29.98 in - Calm Calm - N/A   Clear
5:30 AM 48.2 °F - 44.6 °F 87% 29.98 in - Calm Calm - N/A   Clear
6:00 AM 50 °F - 46 °F 82% 29.99 in - NE 2.2 mph - -  
6:00 AM 46.4 °F 44.3 °F 44.6 °F 93% 29.98 in - East 4.6 mph - N/A   Clear
6:30 AM 48.2 °F - 44.6 °F 87% 29.98 in - East 4.6 mph - N/A   Clear
7:00 AM 50 °F - 46 °F 79% 29.99 in - East 4.5 mph - -  
7:00 AM 50.0 °F - 46.4 °F 87% 29.98 in - East 4.6 mph - N/A   Clear
7:30 AM 51.8 °F - 48.2 °F 88% 29.98 in - ESE 4.6 mph - N/A   Clear
8:00 AM 53 °F - 47 °F 75% 29.99 in 31 mi ESE 4.5 mph - -   Clear
8:00 AM 53.6 °F - 48.2 °F 82% 29.98 in - ESE 6.9 mph - N/A   Clear
8:30 AM 55.4 °F - 48.2 °F 77% 29.98 in - ESE 4.6 mph - N/A   Clear
9:00 AM 55 °F - 48 °F 71% 29.98 in 31 mi ESE 4.5 mph - -   Partly Cloudy
9:00 AM 57.2 °F - 50.0 °F 77% 29.98 in - ESE 4.6 mph - N/A   Clear
9:30 AM 59.0 °F - 50.0 °F 72% 29.98 in - Variable 2.3 mph - N/A   Clear
10:00 AM 59 °F - 49 °F 62% 29.97 in 31 mi ESE 4.5 mph - -   Partly Cloudy
10:00 AM 60.8 °F - 51.8 °F 72% 29.98 in - Variable 2.3 mph - N/A   Clear
10:30 AM 62.6 °F - 51.8 °F 68% 29.98 in - ESE 4.6 mph - N/A   Clear
11:00 AM 65 °F - 51 °F 51% 29.94 in 31 mi East 2.2 mph - -   Scattered Clouds
11:00 AM 64.4 °F - 51.8 °F 64% 29.98 in 6.2 mi Variable 2.3 mph - N/A   Partly Cloudy
11:30 AM 66.2 °F - 53.6 °F 64% 29.95 in 6.2 mi Variable 2.3 mph - N/A   Partly Cloudy
12:00 PM 69 °F - 51 °F 42% 29.92 in 31 mi ESE 2.2 mph - -   Scattered Clouds
12:00 PM 69.8 °F - 51.8 °F 53% 29.95 in 6.2 mi Variable 4.6 mph - N/A   Scattered Clouds
12:30 PM 71.6 °F - 48.2 °F 43% 29.95 in 6.2 mi SE 2.3 mph - N/A   Scattered Clouds
1:00 PM 72 °F - 51 °F 36% 29.91 in 31 mi SW 2.2 mph - -   Mostly Cloudy
1:00 PM 68.0 °F - 55.4 °F 64% 29.95 in 6.2 mi WNW 9.2 mph - N/A Rain Light Rain Showers
1:30 PM 69.8 °F - 59.0 °F 68% 29.95 in 6.2 mi SW 11.5 mph - N/A   Scattered Clouds
2:00 PM 70 °F - 53 °F 44% 29.91 in 31 mi WNW 6.7 mph - -   Mostly Cloudy
2:00 PM 66.2 °F - 57.2 °F 73% 29.95 in 6.2 mi West 11.5 mph - N/A Rain Light Rain Showers
2:30 PM 66.2 °F - 59.0 °F 78% 29.95 in 6.2 mi West 11.5 mph - N/A   Scattered Clouds
3:00 PM 66 °F - 59 °F 71% 29.93 in 31 mi WSW 8.9 mph - -   Mostly Cloudy
3:00 PM 64.4 °F - 59.0 °F 83% 29.95 in 6.2 mi West 13.8 mph - N/A Rain Light Rain Showers
3:30 PM 64.4 °F - 55.4 °F 73% 29.95 in 5.0 mi WSW 13.8 mph - N/A Rain Rain Showers
4:00 PM 65 °F - 57 °F 68% 29.94 in 12 mi WSW 11.2 mph - - Rain Light Rain Showers
4:00 PM 68.0 °F - 55.4 °F 64% 29.95 in 6.2 mi West 9.2 mph - N/A   Mostly Cloudy
4:30 PM 68.0 °F - 53.6 °F 60% 29.95 in 6.2 mi West 9.2 mph - N/A Thunderstorm Thunderstorm
5:00 PM 69 °F - 52 °F 44% 29.91 in 12 mi West 8.9 mph - - Rain Light Rain Showers
5:00 PM 66.2 °F - 57.2 °F 73% 29.95 in 6.2 mi West 6.9 mph - N/A Rain Light Rain Showers
5:30 PM 66.2 °F - 53.6 °F 64% 29.95 in 6.2 mi NE 4.6 mph - N/A   Mostly Cloudy
6:00 PM 67 °F - 51 °F 45% 29.92 in 12 mi NE 2.2 mph - -   Partly Cloudy
6:00 PM 64.4 °F - 55.4 °F 73% 29.95 in 6.2 mi WNW 9.2 mph - N/A Rain Light Rain Showers
6:30 PM 60.8 °F - 57.2 °F 88% 29.95 in 6.2 mi West 6.9 mph - N/A Rain , Thunderstorm Light Thunderstorms and Rain
7:00 PM 62 °F - 56 °F 77% 29.94 in 12 mi WSW 6.7 mph - - Rain , Thunderstorm Thunderstorms and Rain
7:00 PM 59.0 °F - 57.2 °F 94% 29.98 in 6.2 mi SSW 6.9 mph - N/A Rain , Thunderstorm Light Thunderstorms and Rain
7:30 PM 55.4 °F - 51.8 °F 88% 29.98 in 6.2 mi WNW 16.1 mph - N/A Rain , Thunderstorm Light Thunderstorms and Rain
8:00 PM 57 °F - 52 °F 78% 29.97 in 6 mi West 13.4 mph - - Rain , Thunderstorm Thunderstorms and Rain
8:00 PM 55.4 °F - 53.6 °F 94% 29.98 in 6.2 mi Variable 2.3 mph - N/A Rain Light Rain Showers
8:30 PM 55.4 °F - 53.6 °F 94% 29.98 in 6.2 mi SSE 4.6 mph - N/A   Mostly Cloudy
9:00 PM 57 °F - 54 °F 88% 29.96 in 12 mi SE 2.2 mph - - Thunderstorm Light Thunderstorm
9:00 PM 55.4 °F - 53.6 °F 94% 29.98 in 6.2 mi Variable 2.3 mph - N/A   Mostly Cloudy
10:00 PM 55 °F - 54 °F 93% 29.97 in 12 mi SSE 2.2 mph - -   Scattered Clouds
10:00 PM 55.4 °F - 51.8 °F 88% 29.98 in 6.2 mi SW 4.6 mph - N/A   Scattered Clouds
11:00 PM 56 °F - 53 °F 86% 30.00 in 12 mi West 2.2 mph - -   Partly Cloudy
11:00 PM 59.0 °F - 51.8 °F 77% 30.01 in 6.2 mi NW 11.5 mph - N/A   Scattered Clouds